Location: Newark
(27.9675°N, 86.8869°E)
Time: 05:48:29
(UTC+00:00)

Altair - Visible Passes

Search period start: 23 October 2019 00:00
Search period end: 02 November 2019 00:00
Orbit: 1501 x 1682 km, 47.2° (Epoch: 22 October)

Date Brightness Start Highest point End Pass type
(mag) Time Alt. Az. Time Alt. Az. Time Alt. Az.
23 Oct 9.7 13:42:17 10° W 13:48:36 19° WSW 13:54:56 10° SSW visible
24 Oct 9.7 13:16:32 10° W 13:23:30 21° SW 13:30:29 10° S visible
25 Oct 9.6 12:50:53 10° WNW 12:58:23 24° SW 13:05:55 10° S visible
25 Oct 10.3 23:56:59 10° SE 23:59:23 11° ESE 00:01:47 10° ESE visible
26 Oct 9.6 12:25:19 10° WNW 12:33:16 27° SW 12:41:16 10° S visible
27 Oct 9.5 11:59:49 10° WNW 12:08:09 30° SW 12:16:32 10° S visible
30 Oct 9.0 23:49:11 10° SSW 23:57:21 37° SE 00:05:38 10° ENE visible
31 Oct 9.1 23:24:23 10° S 23:32:16 33° SE 23:40:15 10° ENE visible
01 Nov 9.2 22:59:38 10° S 23:07:12 30° SE 23:14:49 10° ENE visible
